Weather History for North Platte, NE

Change the Weather History Date:

Monday, November 12, 2012

  Actual Average Record
Temperature  
Mean Temperature 26 °F 37 °F  
Max Temperature 45 °F 52 °F 79 °F (1892)
Min Temperature 6 °F 23 °F -8 °F (1919)
Degree Days  
Heating Degree Days 39 28  
Month to date heating degree days 303 300  
Since 1 July heating degree days 1004 969  
Cooling Degree Days 0 0  
Month to date cooling degree days 0 0  
Year to date cooling degree days 1245 768  
Moisture  
Dew Point 9 °F    
Average Humidity 52    
Maximum Humidity 84    
Minimum Humidity 20    
Precipitation  
Precipitation 0.00 in 0.02 in 0.82 in (1993)
Month to date precipitation T 0.32  
Year to date precipitation 9.62 19.50  
Snow  
Snow 0.00 in 0.10 in 5.20 in (1922)
Month to date snowfall T 1.4  
Since 1 July snowfall 2.2 3.7  
Since 1 September snowfall 2.2 3.7  
Snow Depth 0.00 in    
Sea Level Pressure  
Sea Level Pressure 30.37 in    
Wind  
Wind Speed 8 mph (WNW)    
Max Wind Speed 25 mph    
Max Gust Speed 29 mph    
Visibility 10 miles    
Events      
T = Trace of Precipitation, MM = Missing Value Source: NWS Daily Summary

Daily Weather History Graph

Daily Weather History Graph

Search for Another Location

Airport:

Trip Planner

Search our weather history database for the weather conditions in past years. The results will help you decide how hot, cold, wet, or windy it might be!

Date:

Astronomy

Nov. 12, 2012 Rise Set
Actual Time 7:27 AM CST 5:25 PM CST
Civil Twilight 6:58 AM CST 5:55 PM CST
Nautical Twilight 6:24 AM CST 6:28 PM CST
Astronomical Twilight 5:52 AM CST 7:00 PM CST
Moon 5:54 AM CST (11/12) 4:32 PM CST (11/12)
Length of Visible Light 10h 57m
Length of Day
9h 58m
Waning Crescent, 2% of the Moon is Illuminated
Nov 12
Waning Crescent
Nov 13
New
Nov 20
First Quarter
Nov 28
Full
Dec 6
Last Quarter

Hourly Weather History & Observations

Time (CST) Temp. Windchill Dew Point Humidity Pressure Visibility Wind Dir Wind Speed Gust Speed Precip Events Conditions
12:53 AM 12.0 °F 1.5 °F 8.1 °F 84% 30.31 in 10.0 mi WNW 6.9 mph - N/A   Clear
1:53 AM 12.9 °F 2.6 °F 8.1 °F 81% 30.31 in 10.0 mi WNW 6.9 mph - N/A   Clear
2:53 AM 10.9 °F 1.4 °F 7.0 °F 84% 30.32 in 10.0 mi NW 5.8 mph - N/A   Clear
3:53 AM 12.0 °F 4.1 °F 7.0 °F 80% 30.32 in 8.0 mi NW 4.6 mph - N/A   Clear
4:53 AM 12.0 °F 1.5 °F 7.0 °F 80% 30.33 in 10.0 mi NW 6.9 mph - N/A   Clear
5:53 AM 10.4 °F -1.5 °F 5.0 °F 79% 30.23 in 10.0 mi NW 8.1 mph - N/A   Clear
6:53 AM 8.1 °F -2.0 °F 5.0 °F 87% 30.39 in 10.0 mi WNW 5.8 mph - N/A   Clear
7:53 AM 10.0 °F 0.4 °F 6.1 °F 84% 30.41 in 10.0 mi NNW 5.8 mph - N/A   Clear
8:53 AM 21.0 °F 9.3 °F 12.9 °F 71% 30.40 in 10.0 mi West 11.5 mph - N/A   Clear
9:53 AM 28.0 °F 15.7 °F 12.0 °F 51% 30.40 in 10.0 mi West 17.3 mph - N/A   Clear
10:53 AM 33.1 °F 23.0 °F 12.9 °F 43% 30.40 in 10.0 mi West 15.0 mph - N/A   Clear
11:53 AM 39.0 °F 31.0 °F 12.9 °F 34% 30.38 in 10.0 mi West 13.8 mph - N/A   Clear
12:53 PM 43.0 °F 35.7 °F 10.9 °F 27% 30.36 in 10.0 mi West 15.0 mph 23.0 mph N/A   Clear
1:53 PM 44.1 °F 35.9 °F 6.1 °F 21% 30.34 in 10.0 mi NW 19.6 mph 28.8 mph N/A   Clear
2:53 PM 45.0 °F 37.9 °F 6.1 °F 20% 30.35 in 10.0 mi WNW 16.1 mph 23.0 mph N/A   Clear
3:53 PM 44.1 °F 36.8 °F 8.1 °F 23% 30.35 in 10.0 mi WNW 16.1 mph - N/A   Clear
4:53 PM 41.0 °F 35.8 °F 10.0 °F 28% 30.35 in 10.0 mi NW 8.1 mph - N/A   Clear
5:53 PM 30.9 °F 27.5 °F 9.0 °F 40% 30.39 in 10.0 mi WSW 3.5 mph - N/A   Clear
6:53 PM 25.0 °F - 12.0 °F 58% 30.41 in 10.0 mi Calm Calm - N/A   Clear
7:53 PM 21.0 °F 16.2 °F 8.1 °F 57% 30.42 in 10.0 mi ESE 3.5 mph - N/A   Clear
8:53 PM 19.9 °F 14.9 °F 10.0 °F 65% 30.41 in 10.0 mi ESE 3.5 mph - N/A   Clear
9:53 PM 17.1 °F - 9.0 °F 71% 30.41 in 10.0 mi Calm Calm - N/A   Clear
10:53 PM 15.1 °F - 8.1 °F 74% 30.40 in 10.0 mi Calm Calm - N/A   Clear
11:53 PM 14.0 °F 8.2 °F 7.0 °F 74% 30.39 in 10.0 mi NNW 3.5 mph - N/A   Clear